Temperature
20 18 18 18 20 21 22 22 22 23 23 23 23 22 22 22 22 22 21 21 21 22 22 21 21 21 21 21 21 20 20 20 20 19 19 19 19 19 18 18 18 18 18 18
19 19 19 20 20 22 22 22 22 22 23 24 23 22 22 21 22 22 22 22 22 22 22 21 21 21 21 21 21 21 20 20 20 20 19 19 19 19 19 18 18 18 18 18
19 20 20 21 21 21 22 21 22 22 22 22 23 22 22 22 22 22 22 22 23 22 22 22 22 22 22 22 21 21 21 20 20 20 19 19 18 18 18 18 18 18 18 18
20 20 21 21 21 21 21 22 22 23 22 20 22 21 21 21 21 21 22 22 22 23 23 22 22 22 22 22 22 21 21 20 20 19 19 19 19 19 19 19 18 18 18 18
19 21 21 21 21 21 21 22 22 22 21 20 21 21 20 20 21 21 21 22 23 23 23 23 23 23 23 22 22 21 21 20 20 19 19 19 19 19 19 19 18 18 18 18
20 21 21 22 22 22 22 21 19 17 18 20 20 20 20 19 20 21 21 22 23 23 23 23 23 22 22 22 22 21 21 20 20 19 19 19 19 19 19 19 18 18 18 18
21 21 22 22 22 22 21 19 18 19 18 18 19 20 19 20 20 21 21 22 23 23 23 23 22 22 22 21 21 21 21 20 20 20 19 19 19 19 19 19 19 18 18 18
19 19 21 21 21 20 19 19 18 19 19 18 19 19 20 20 20 21 22 23 23 23 23 23 23 22 22 22 21 21 21 20 20 20 19 19 19 19 19 18 18 18 18 18
18 19 21 22 22 21 19 18 19 17 18 19 19 19 20 20 20 20 21 22 22 23 23 23 23 22 22 21 21 21 21 20 20 20 19 19 19 18 18 18 18 18 18 18
18 20 21 22 22 21 20 17 16 17 18 19 21 20 20 21 20 20 19 20 21 22 22 22 22 22 22 22 21 21 21 20 20 20 19 19 19 18 18 18 18 18 18 17
19 19 21 21 22 21 19 19 16 15 17 18 19 20 20 20 20 19 19 20 21 22 22 22 22 22 21 21 21 20 20 20 20 20 19 19 19 18 18 18 18 18 17 17
18 17 18 20 21 21 20 18 17 18 18 16 18 19 20 19 19 19 20 20 21 21 22 22 22 22 21 21 20 20 20 20 20 20 19 19 19 18 18 18 17 17 17 17
18 16 18 19 20 20 20 19 18 16 15 15 18 20 19 18 19 19 19 20 20 21 21 21 21 21 20 20 20 20 20 20 20 19 19 19 18 18 18 18 17 17 17 17
17 16 17 18 19 19 20 19 18 17 17 17 18 20 20 19 18 18 19 19 20 21 21 21 20 20 20 20 20 20 20 20 19 19 19 18 18 18 18 17 17 17 17 17
17 17 17 18 19 20 21 20 19 19 18 18 19 19 20 19 18 18 19 19 19 20 20 20 20 20 20 20 20 20 19 19 19 19 18 18 18 18 17 17 17 17 17 17
15 17 18 19 20 20 20 20 20 20 19 19 20 20 19 18 19 18 18 18 19 20 20 20 20 20 20 20 20 19 19 19 18 18 18 18 18 17 17 17 17 16 16 16
14 16 16 17 19 20 19 19 20 19 19 19 20 20 18 17 17 17 18 18 19 19 19 20 20 20 20 19 19 19 18 18 18 18 17 17 17 17 17 16 16 16 16 16
14 14 14 16 19 19 19 19 19 19 18 18 18 18 17 17 17 18 19 19 19 19 19 19 20 19 19 19 19 18 18 18 17 17 17 17 17 17 16 16 16 16 16 16
13 14 14 14 16 18 19 19 18 18 18 17 17 17 16 17 17 17 18 19 19 19 19 19 19 19 19 18 18 18 17 17 17 17 17 17 16 16 16 16 16 16 15 15
13 13 14 14 17 18 18 19 18 19 18 18 17 16 16 17 17 16 18 18 19 19 19 19 18 18 18 18 17 17 17 17 16 16 16 16 16 16 16 15 15 15 15 15
14 13 14 15 16 17 17 17 18 19 18 18 17 17 17 17 17 18 18 18 18 18 18 18 18 17 17 17 17 17 17 16 16 16 16 16 15 15 15 15 15 14 14 14
13 14 13 13 16 17 17 17 17 17 17 17 17 17 17 17 17 17 17 17 17 17 17 17 17 17 16 16 17 16 16 16 15 15 15 15 15 15 15 14 14 14 14 14
12 12 12 13 14 14 15 15 16 17 16 17 17 17 17 17 16 17 16 16 17 17 17 17 17 16 16 16 16 16 15 15 15 15 15 15 14 14 14 14 14 14 13 13
12 12 12 13 13 14 15 16 16 17 17 17 17 17 17 16 16 16 16 16 16 16 16 16 16 16 15 15 15 15 15 14 14 14 14 14 14 14 13 13 13 13 13 12
12 12 12 13 13 14 15 15 16 16 17 17 17 17 17 16 16 16 15 15 16 15 15 15 15 15 15 14 14 14 14 14 14 14 14 13 13 13 13 12 12 12 12 12
11 12 12 13 13 13 14 15 16 16 16 16 16 16 16 16 16 15 15 15 15 15 15 14 14 14 14 14 14 14 13 13 13 13 13 13 12 12 12 12 11 11 11 11
Wind_Speed
5 5 6 8 8 6 5 3 1 3 2 1 4 6 6 8 9 10 11 13 15 16 12 11 13 14 13 12 12 13 12 11 10 7 7 6 6 5 5 7 10 12 12 12
4 5 7 7 6 4 3 1 2 3 2 1 3 5 4 7 11 12 15 16 16 12 11 13 13 14 15 15 15 13 13 12 12 10 7 4 4 4 5 5 8 11 12 12
8 5 7 7 6 6 4 5 4 2 5 4 2 5 2 3 4 6 8 11 11 14 14 15 15 16 15 16 16 15 13 12 11 10 6 4 3 2 3 4 5 8 12 12
5 5 5 6 6 7 5 6 6 3 1 3 2 2 6 3 4 7 9 10 11 11 12 12 14 15 16 16 13 12 12 12 11 11 10 9 7 7 7 5 6 6 9 10
7 6 7 7 7 9 7 4 4 2 3 0 1 2 8 2 5 10 10 11 12 12 13 14 15 15 14 13 12 12 11 11 10 11 11 10 8 6 4 4 6 6 6 9
5 4 7 8 6 8 5 6 7 6 5 1 4 5 7 5 9 8 9 10 11 11 12 11 10 9 9 9 10 11 11 11 11 11 11 11 10 8 6 6 7 6 5 6
2 3 4 5 5 3 6 6 4 3 2 6 3 4 9 8 8 10 10 10 9 10 10 10 11 10 10 11 11 11 12 11 11 11 11 11 10 10 10 9 8 7 6 5
6 5 7 7 8 8 8 10 8 6 6 4 1 6 8 6 6 6 6 5 5 7 9 10 11 12 12 12 11 11 11 11 11 11 11 9 9 8 7 8 7 7 7 7
8 6 5 6 7 11 8 6 8 7 3 1 5 7 8 3 4 2 2 3 5 7 9 9 9 10 10 10 10 11 11 10 10 10 9 8 8 8 8 7 7 6 6 6
9 4 4 2 5 3 8 10 7 7 6 3 4 5 5 6 5 3 2 4 5 5 7 8 8 9 8 8 8 7 8 9 9 9 9 8 8 8 7 6 7 7 7 6
7 5 2 2 6 8 6 6 6 6 6 7 3 7 7 7 6 6 5 4 6 7 7 7 7 6 6 7 7 8 7 7 7 7 7 8 8 7 7 7 7 7 6 6
6 6 3 5 4 5 7 9 9 7 4 5 5 8 6 5 5 5 4 3 4 5 6 6 6 5 6 7 7 7 7 7 6 6 6 7 6 6 6 6 6 6 6 5
8 7 3 4 4 2 4 5 6 7 6 6 6 7 3 1 1 2 3 4 4 5 5 5 5 6 6 6 6 6 6 6 5 5 5 5 5 5 5 5 5 5 5 4
7 6 7 9 7 5 5 5 6 8 6 6 8 8 6 3 3 3 3 4 4 5 5 5 5 5 5 4 4 5 5 4 4 5 5 5 5 5 5 4 4 4 4 4
6 5 5 5 4 4 4 6 8 7 9 9 10 9 10 8 7 5 5 5 5 5 5 6 6 6 5 5 4 4 4 4 4 4 4 3 4 4 4 4 4 3 3 3
4 6 4 1 1 3 2 4 7 6 6 6 5 7 6 3 4 5 5 6 6 5 6 6 7 7 6 5 5 5 5 4 5 5 4 4 5 5 4 4 3 3 3 3
3 6 5 3 1 3 1 4 6 5 4 7 8 8 4 4 7 7 7 7 6 5 5 6 6 6 5 5 5 6 6 6 6 6 5 5 5 5 4 4 4 4 4 4
7 6 4 3 4 4 6 2 3 5 3 4 5 4 6 6 5 4 4 7 7 6 6 6 6 7 6 6 7 7 7 7 6 6 5 5 5 5 4 5 4 4 4 4
5 7 5 4 5 2 3 1 2 4 3 3 5 4 6 8 6 3 1 4 6 7 7 7 7 7 7 8 8 8 8 7 6 6 5 5 5 5 5 5 4 4 5 6
5 5 6 5 5 6 7 2 1 4 3 3 6 8 9 8 5 3 3 6 7 8 8 8 9 9 9 8 8 9 8 7 6 5 5 5 6 6 6 5 5 6 7 7
4 4 4 4 3 5 4 2 2 5 7 3 6 8 9 6 5 7 9 8 8 9 9 9 9 8 7 7 9 9 8 7 5 6 7 7 7 7 7 6 6 7 8 8
4 5 4 5 4 6 2 2 6 5 1 3 5 6 8 8 9 11 11 10 10 10 9 9 9 8 6 7 9 9 8 6 7 8 8 8 7 7 7 7 7 7 8 8
2 4 5 5 5 3 2 2 2 1 2 2 4 7 10 10 10 11 10 10 10 9 9 8 9 9 7 6 7 8 6 6 9 9 9 8 9 8 7 8 8 7 7 7
1 1 2 0 2 3 3 2 1 2 2 3 5 8 9 10 11 11 10 9 9 9 9 8 9 8 7 6 7 6 6 7 10 10 8 8 8 9 8 7 6 6 6 6
2 1 2 0 2 2 4 3 2 4 5 7 7 7 9 12 11 11 10 9 8 8 7 7 8 8 7 7 7 6 7 8 10 9 8 8 8 8 9 9 8 7 6 5
2 4 4 5 5 3 1 2 2 4 5 7 9 9 8 10 11 10 9 8 9 9 8 8 8 8 7 7 7 6 6 7 9 8 8 7 7 7 8 9 10 16 13 15
Wind_Direction
126 114 184 192 178 166 153 148 233 260 274 252 243 255 242 192 187 192 196 198 201 207 194 179 180 181 179 180 183 187 186 181 175 178 184 187 196 195 197 204 207 204 203 201
92 218 204 167 161 151 151 176 275 303 335 252 265 280 255 196 200 201 200 202 205 198 180 180 180 182 185 187 189 190 191 186 185 189 186 181 172 187 196 200 203 206 205 201
166 215 169 153 160 169 192 194 213 258 349 12 38 334 310 249 231 222 216 211 208 200 192 186 184 187 187 192 193 195 194 191 189 181 166 149 134 126 178 198 203 207 205 204
199 224 157 163 183 162 227 216 197 201 56 306 55 276 285 263 252 233 226 214 211 202 194 190 187 188 192 195 189 189 189 188 187 179 178 177 185 194 200 196 200 201 204 206
211 189 172 190 196 167 203 194 172 170 160 303 357 164 281 298 248 243 231 218 213 201 193 192 193 192 191 188 185 186 184 187 184 184 189 190 197 199 182 178 193 201 204 207
207 206 186 195 188 174 157 75 57 52 85 205 227 172 267 237 226 241 232 222 211 198 190 189 189 180 179 178 182 183 185 190 186 187 191 195 197 189 179 189 200 205 204 206
217 241 217 169 135 128 124 100 49 18 30 240 252 190 245 248 239 234 232 221 207 192 180 177 174 176 181 180 183 185 188 192 189 190 195 198 200 194 195 197 201 201 202 208
172 243 218 185 171 167 167 145 157 178 201 257 277 225 251 261 264 258 237 218 192 179 179 179 178 179 183 184 182 186 191 195 192 195 199 200 200 200 203 201 196 201 207 213
169 230 256 208 176 145 140 174 159 131 147 140 280 285 299 283 290 283 218 179 184 179 175 173 172 177 180 182 186 188 192 196 196 197 196 197 200 202 205 201 197 204 210 212
152 201 263 216 113 87 145 144 115 127 144 203 288 280 254 263 258 268 228 191 187 172 165 165 171 179 179 179 177 180 191 196 197 193 195 200 199 202 203 198 201 205 208 208
139 159 295 75 168 164 116 112 115 120 145 152 212 265 232 230 227 224 225 203 176 168 165 166 173 174 163 161 165 175 189 188 188 192 193 194 194 195 193 199 205 206 205 202
145 131 216 256 258 175 152 159 146 148 183 166 168 260 272 231 228 218 214 181 151 150 153 159 155 150 158 164 168 177 187 188 188 186 188 195 188 182 189 200 203 201 202 200
140 126 114 347 350 97 135 152 148 126 122 149 167 258 301 330 200 190 167 153 142 141 136 135 140 153 160 164 170 173 180 183 177 174 178 179 177 175 184 193 190 190 193 192
129 123 161 185 205 183 161 159 150 129 146 182 210 239 274 259 217 184 158 153 142 140 137 137 144 145 141 146 149 153 160 161 158 159 162 167 170 169 172 172 169 174 177 176
119 149 184 208 210 173 181 183 170 167 174 177 217 221 237 224 205 185 160 145 131 138 142 145 145 138 130 131 133 133 127 121 129 133 139 146 141 137 139 146 151 154 152 152
101 148 159 233 244 166 170 195 180 180 174 194 201 239 243 190 149 145 152 148 147 150 150 145 139 135 136 139 133 121 108 104 109 114 116 114 117 123 130 133 131 130 130 127
126 130 136 214 271 95 242 225 189 183 185 174 198 224 173 160 169 170 165 155 155 151 143 137 133 130 127 129 123 113 103 100 102 103 100 103 111 120 130 132 124 126 127 120
143 131 134 143 105 189 242 248 182 170 205 212 221 209 171 167 139 118 140 148 145 139 133 125 117 113 105 102 102 101 100 102 102 100 98 100 107 111 112 114 115 119 118 111
149 135 123 130 150 218 275 243 160 169 247 230 193 153 132 126 92 49 80 129 138 132 127 119 112 112 107 106 108 107 103 102 99 96 93 93 103 108 106 105 105 103 102 96
74 98 119 128 141 199 228 233 231 129 274 240 173 160 153 135 136 201 147 114 114 112 112 112 108 106 107 109 113 109 106 101 96 91 87 86 91 100 100 96 93 92 97 96
79 75 120 142 168 240 247 276 120 159 228 207 171 164 160 163 170 148 132 115 112 109 106 105 102 100 105 111 112 109 104 98 94 90 88 84 84 89 92 91 93 97 98 95
150 140 155 143 159 233 285 124 173 206 196 140 148 149 139 121 115 123 125 121 117 112 105 103 100 94 89 99 108 107 103 100 96 92 88 83 79 82 88 92 89 92 99 98
156 182 173 180 202 254 291 228 260 182 154 156 139 136 130 122 122 121 120 119 114 112 108 105 105 97 84 84 103 110 107 104 99 93 88 86 82 77 78 85 89 88 90 95
324 131 125 82 306 315 325 337 22 93 113 109 124 128 127 125 126 122 120 117 114 111 111 111 109 105 95 86 91 102 105 103 102 98 93 90 88 81 73 71 74 83 87 96
254 123 114 112 279 352 7 10 59 82 91 96 100 110 124 124 124 124 124 122 118 112 107 109 112 111 107 102 98 98 103 108 105 101 98 95 92 92 82 71 60 67 58 83
223 183 167 204 215 179 258 315 85 93 104 113 110 106 113 122 123 121 121 119 116 114 111 109 108 110 110 106 101 99 105 113 114 109 105 104 104 99 97 94 77 59 66 66
Height
1484 1492 1498 1497 1496 1498 1500 1504 1507 1502 1495 1497 1498 1497 1493 1493 1495 1497 1499 1501 1503 1505 1510 1515 1519 1523 1527 1531 1534 1537 1540 1543 1546 1549 1551 1554 1556 1560 1562 1565 1567 1569 1571 1573
1490 1493 1489 1490 1493 1495 1499 1504 1506 1501 1495 1496 1498 1497 1492 1492 1492 1492 1495 1497 1499 1503 1508 1511 1516 1520 1523 1527 1531 1534 1537 1541 1544 1547 1550 1553 1555 1558 1560 1563 1565 1567 1569 1571
1488 1486 1484 1488 1493 1497 1500 1503 1503 1503 1499 1497 1499 1502 1496 1492 1492 1493 1494 1495 1497 1500 1502 1507 1511 1515 1519 1523 1527 1531 1535 1538 1541 1545 1548 1551 1553 1556 1558 1560 1562 1564 1567 1569
1484 1481 1483 1487 1491 1494 1503 1495 1497 1499 1507 1513 1506 1520 1503 1496 1493 1491 1491 1492 1494 1497 1500 1504 1508 1512 1515 1519 1524 1528 1532 1536 1539 1542 1545 1547 1549 1551 1554 1557 1559 1562 1564 1566
1482 1479 1481 1486 1487 1488 1493 1490 1494 1498 1506 1514 1511 1518 1511 1498 1496 1490 1487 1487 1489 1492 1496 1500 1504 1507 1512 1517 1521 1525 1529 1533 1536 1539 1542 1545 1547 1549 1552 1554 1557 1559 1560 1562
1476 1475 1476 1478 1479 1482 1486 1493 1500 1509 1515 1526 1514 1518 1514 1501 1491 1485 1482 1483 1485 1488 1492 1496 1501 1506 1510 1515 1519 1522 1526 1529 1533 1536 1539 1541 1544 1546 1549 1551 1553 1555 1557 1559
1479 1475 1473 1473 1480 1482 1487 1506 1524 1525 1534 1530 1513 1514 1509 1487 1482 1480 1478 1478 1481 1485 1489 1493 1497 1502 1506 1511 1515 1518 1522 1525 1529 1532 1534 1537 1540 1542 1544 1547 1549 1551 1553 1554
1487 1488 1473 1471 1476 1484 1489 1499 1522 1531 1533 1527 1513 1514 1497 1480 1477 1476 1475 1476 1479 1482 1486 1490 1493 1498 1502 1507 1510 1514 1518 1521 1525 1527 1530 1533 1536 1538 1540 1543 1545 1547 1548 1550
1485 1485 1468 1466 1467 1474 1490 1496 1496 1515 1520 1523 1518 1505 1489 1478 1476 1475 1475 1476 1477 1480 1483 1487 1491 1496 1500 1503 1506 1510 1514 1518 1521 1523 1526 1529 1532 1534 1536 1538 1540 1542 1544 1546
1471 1479 1468 1464 1467 1471 1476 1487 1503 1515 1528 1528 1515 1508 1500 1482 1478 1476 1475 1474 1476 1479 1482 1485 1489 1493 1497 1501 1504 1508 1512 1514 1517 1520 1523 1525 1528 1530 1532 1534 1535 1537 1539 1541
1465 1476 1473 1469 1470 1476 1482 1488 1497 1510 1512 1526 1526 1513 1482 1478 1475 1475 1473 1473 1474 1477 1481 1484 1488 1492 1495 1499 1502 1506 1509 1512 1514 1516 1519 1521 1524 1526 1527 1529 1531 1533 1535 1537
1463 1476 1483 1474 1465 1464 1469 1479 1490 1504 1512 1515 1518 1508 1473 1473 1472 1472 1472 1473 1475 1478 1480 1484 1486 1490 1494 1497 1500 1504 1507 1509 1511 1513 1516 1518 1520 1522 1523 1525 1527 1529 1531 1533
1462 1476 1487 1484 1479 1470 1471 1476 1480 1491 1506 1516 1515 1500 1473 1471 1471 1472 1473 1474 1475 1478 1480 1483 1486 1489 1492 1495 1498 1502 1505 1507 1509 1511 1513 1514 1516 1518 1519 1521 1524 1526 1528 1530
1454 1472 1480 1487 1481 1472 1472 1474 1478 1486 1502 1507 1501 1489 1477 1473 1472 1472 1473 1474 1475 1477 1480 1483 1486 1489 1492 1494 1497 1500 1503 1505 1507 1509 1511 1512 1514 1515 1517 1519 1521 1523 1525 1527
1453 1468 1469 1468 1465 1465 1466 1469 1473 1477 1483 1490 1486 1483 1473 1469 1469 1471 1472 1474 1476 1478 1480 1482 1485 1488 1491 1494 1497 1499 1502 1504 1506 1507 1509 1510 1512 1514 1516 1517 1520 1522 1523 1525
1456 1464 1466 1467 1462 1462 1466 1466 1468 1470 1474 1475 1474 1475 1465 1466 1468 1471 1472 1474 1475 1477 1480 1483 1485 1488 1491 1494 1497 1499 1501 1503 1505 1506 1508 1509 1511 1512 1514 1516 1519 1521 1522 1523
1459 1464 1472 1475 1466 1464 1475 1467 1466 1467 1467 1469 1473 1468 1464 1466 1467 1469 1471 1473 1475 1477 1480 1482 1485 1488 1491 1494 1497 1499 1502 1504 1505 1506 1508 1509 1510 1512 1514 1515 1517 1519 1521 1522
1457 1465 1474 1477 1473 1483 1472 1459 1459 1462 1463 1462 1461 1461 1462 1463 1466 1469 1471 1473 1475 1478 1481 1483 1486 1488 1492 1495 1498 1500 1503 1504 1505 1506 1507 1509 1510 1512 1514 1515 1517 1519 1520 1521
1451 1461 1474 1481 1481 1475 1465 1459 1459 1462 1463 1459 1460 1460 1462 1464 1467 1470 1472 1473 1476 1478 1481 1484 1487 1490 1492 1496 1498 1501 1503 1504 1506 1507 1508 1509 1511 1512 1514 1515 1517 1518 1519 1521
1454 1457 1469 1477 1480 1481 1465 1455 1455 1459 1465 1456 1457 1459 1461 1463 1471 1472 1471 1474 1477 1479 1482 1485 1487 1490 1493 1496 1499 1501 1503 1505 1506 1508 1509 1510 1512 1513 1514 1516 1517 1518 1520 1521
1461 1465 1470 1474 1475 1469 1456 1453 1455 1468 1464 1454 1454 1455 1458 1460 1464 1467 1470 1474 1477 1480 1483 1486 1489 1492 1495 1497 1499 1501 1503 1506 1507 1509 1510 1511 1512 1514 1515 1516 1517 1518 1520 1521
1462 1466 1471 1474 1475 1471 1453 1452 1456 1456 1451 1452 1453 1455 1457 1459 1463 1466 1470 1474 1478 1481 1484 1488 1490 1493 1496 1498 1500 1502 1503 1506 1507 1509 1511 1512 1513 1515 1516 1517 1518 1520 1521 1522
1460 1461 1463 1464 1464 1455 1453 1452 1452 1452 1452 1452 1453 1455 1457 1460 1464 1467 1471 1475 1478 1482 1485 1489 1492 1494 1497 1499 1501 1503 1505 1506 1508 1510 1512 1513 1515 1516 1517 1518 1519 1521 1522 1523
1457 1456 1458 1459 1456 1453 1452 1451 1451 1451 1452 1453 1454 1456 1459 1461 1465 1469 1473 1477 1480 1483 1487 1490 1492 1495 1498 1500 1502 1504 1506 1507 1509 1511 1512 1514 1516 1517 1518 1520 1521 1522 1523 1524
1456 1456 1457 1458 1455 1453 1452 1452 1452 1452 1453 1455 1457 1459 1461 1464 1467 1470 1474 1478 1482 1485 1488 1491 1494 1496 1499 1501 1503 1505 1507 1508 1510 1511 1513 1515 1517 1519 1520 1521 1523 1524 1525 1527
1454 1455 1456 1457 1454 1454 1454 1454 1454 1454 1454 1456 1458 1461 1464 1466 1469 1473 1477 1480 1483 1486 1489 1493 1495 1498 1500 1502 1504 1505 1508 1510 1511 1512 1514 1516 1518 1520 1521 1523 1524 1526 1528 1530